Flag for Venezuela Weather past 2 weeks in Valencia, Venezuela

Now
82 °F

Scattered clouds.


Feels Like: 88 °F
Forecast: 67 / 88 °F
Wind: 3 mph from East

Location: Valencia Airport

Current Time: Jul 30, 2015 at 7:50:21 AM

Latest Report: Jul 30, 2015 at 7:30 AM


Visibility: N/A

Pressure: 30.01 "Hg

Humidity: 74%

Dew point: 73 °F

Location of ValenciaLocation

Historic Weather in Valencia — Graph

°F

Valencia temperature yesterday

Maximum temperature yesterday: 95 °F (at 1:30 PM)
Minimum temperature yesterday: 77 °F (at 6:30 AM)
Average temperature yesterday: 86 °F

Past Weeks' High & Low Weather Summary

 TemperatureHumidityPressure
High95 °F (Jul 29, 1:30 PM)100% (Jul 15, 3:30 PM)30.12 "Hg (Jul 15, 3:30 PM)
Low37 °F (Jul 15, 3:30 PM)41% (Jul 29, 1:30 PM)29.83 "Hg (Jul 27, 5:30 PM)
Average83 °F71%29.99 "Hg
* Reported Jul 15 6:30 AM — Jul 30 6:30 AM, Valencia, Weather by CustomWeather, © 2015

Note: Actual official high and low records may vary slightly from our data, if they occured in-between our weather recording intervals... More about our weather records

Advertising

Valencia weather history for previous 24 hours

 ConditionsComfort  
Time TempWeatherWind HumidityBarometerVisibility
6:30 AM
Thu, Jul 30
79 °FScattered clouds.3 mph79%29.98 "HgN/A
4:30 AM79 °FPassing clouds.5 mph84%29.95 "HgN/A
1:30 AM81 °FPassing clouds.3 mph74%29.98 "HgN/A
10:30 PM
Wed, Jul 29
81 °FPassing clouds.5 mph79%29.98 "HgN/A
9:30 PM82 °FPassing clouds.5 mph74%29.98 "HgN/A
8:30 PM82 °FPassing clouds.5 mph74%29.95 "HgN/A
7:30 PM84 °FPassing clouds.8 mph66%29.92 "HgN/A
6:30 PM81 °FPassing clouds.8 mph66%29.89 "HgN/A
5:30 PM86 °FScattered clouds.8 mph62%29.86 "HgN/A
4:30 PM91 °FScattered clouds.6 mph56%29.86 "HgN/A
3:30 PM95 °FScattered clouds.8 mph41%29.89 "HgN/A
2:30 PM95 °FPassing clouds.8 mph41%29.92 "HgN/A
1:30 PM95 °FPassing clouds.7 mph41%29.95 "HgN/A
12:30 PM93 °FPassing clouds.7 mph44%29.98 "HgN/A
11:30 AM91 °FPassing clouds.9 mph46%30.01 "HgN/A
9:30 AM86 °FPartly sunny.9 mph66%30.04 "HgN/A
8:30 AM84 °FPartly sunny.8 mph66%30.01 "HgN/A
7:30 AM79 °FPassing clouds.5 mph84%30.01 "HgN/A
Weather by CustomWeather, © 2015

See weather overviewHow to use our weather pages